Regional Weather Roundup
Issued by NWS Sterling, VA

Home | Current Version | Previous Version | Text Only | Print | Product List | Glossary On
Versions: 1 2 3 4 5 6 7 8 9 10 11 12 13 14 15 16 17 18 19 20 21 22 23 24 25 26 27 28 29 30 31 32 33 34 35 36 37 38 39 40 41 42 43 44 45 46 47 48 49 50
000
ASUS41 KLWX 040510
RWRLWX

REGIONAL WEATHER ROUNDUP
NATIONAL WEATHER SERVICE BALTIMORE MD/WASHINGTON DC
100 AM EDT MON MAY 04 2015

Note: "FAIR" indicates few or no clouds below 12,000 feet
with no significant weather and/or obstructions to visibility.
 TC=TEMPERATURE CELSIUS

 * =Non NWS site. Station does not report precipitation (e.g. rain,
    snow, etc.), thunder, or fog.

DCZ001-MDZ009-015-VAZ040>042-051-053>054-040600-
WASHINGTON METRO

CITY           SKY/WX    TMP DP  RH WIND       PRES   REMARKS
WASHINGTON NAT CLEAR     65  49  56 S3        30.18R
DULLES         PTCLDY    56  46  69 S3        30.17R
ANDREWS AFB    CLEAR     60  46  58 SW9       30.16R
FT BELVOIR     CLEAR     52  49  90 NW1       30.17R
QUANTICO       CLEAR     57  50  77 NW6       30.19R
COLLEGE PARK*  CLEAR     55  50  82 CALM      30.17R
LEESBURG*      CLEAR     57  50  77 SW3       30.18R
MANASSAS*      CLEAR     52  52 100 S3        30.18R
GAITHERSBURG*  CLEAR     57  45  62 SE3       30.21R

$$

MDZ006>007-011-014-040600-
BALTIMORE METRO

CITY           SKY/WX    TMP DP  RH WIND       PRES   REMARKS
BWI AIRPORT    CLEAR     63  44  50 SW5       30.16R
MD SCIENCE CTR   N/A     65  44  46 MISG      30.17R
MARTIN STATE   CLEAR     55  52  88 CALM      30.17S
ANNAPOLIS      CLEAR     59  50  72 CALM      30.16R
FORT MEADE*    CLEAR     50  46  87 CALM      30.19R

$$

MDZ012-015-019>023-040600-
MARYLAND EASTERN SHORE

CITY           SKY/WX    TMP DP  RH WIND       PRES   REMARKS
OCEAN CITY     CLEAR     51  49  92 CALM      30.19R
SALISBURY      CLEAR     51  47  86 CALM      30.19R
BAY BRIDGE AP*   N/A    N/A N/A N/A S3        30.17R
CAMBRIDGE*     CLEAR     57  50  77 SE3       30.18R
EASTON*        CLEAR     60  49  66 CALM      30.21R

$$

MDZ017>025-040600-
SOUTHERN MARYLAND

CITY           SKY/WX    TMP DP  RH WIND       PRES   REMARKS
PATUXENT RIVER CLEAR     62  46  55 SW10      30.17R
ST INIGOES     CLEAR     57  48  72 CALM      30.18R
LEONARDTOWN*   CLEAR     59  43  55 SW3       30.19S

$$

MDZ003>005-040600-
NORTH CENTRAL MARYLAND

CITY           SKY/WX    TMP DP  RH WIND       PRES   REMARKS
FREDERICK*     MOCLDY    52  45  76 CALM      30.18S
HAGERSTOWN APT CLEAR     65  42  43 SE7       30.16R
WESTMINSTER*   PTCLDY    64  41  42 CALM      30.17R

$$

MDZ501>502-040600-
WESTERN MARYLAND

CITY           SKY/WX    TMP DP  RH WIND       PRES   REMARKS
OAKLAND*       PTCLDY    55  36  47 S5        30.22S
CUMBERLAND*    PTCLDY    54  45  71 CALM      30.21R

$$

VAZ025>031-040600-
SHENANDOAH VALLEY

CITY           SKY/WX    TMP DP  RH WIND       PRES   REMARKS
WINCHESTER*    CLEAR     59  41  51 SW5       30.17R
FRONT ROYAL*   FAIR      59  43  55 S6        30.17R
LURAY*         FAIR      50  46  87 CALM      30.19R
NEW MARKET*    FAIR      48  46  92 CALM      30.18S
STAUNTON*      MOCLDY    49  44  83 CALM      30.23R
WAYNESBORO*    FAIR      54  42  62 CALM      30.21S

$$

WVZ021-048>050-054>055-040600-
EASTERN WEST VIRGINIA PANHANDLE

CITY           SKY/WX    TMP DP  RH WIND       PRES   REMARKS
MARTINSBURG    CLEAR     54  45  71 SW3       30.16R
PETERSBURG*    CLEAR     48  43  82 CALM      30.20R

$$

VAZ036>039-050-040600-
CENTRAL FOOTHILLS

CITY           SKY/WX    TMP DP  RH WIND       PRES   REMARKS
CHARLOTTESVILL CLEAR     57  46  66 W3        30.19R
CULPEPER*      NOT AVBL
ORANGE*        CLEAR     52  46  82 CALM      30.20S
GORDONSVILLE*  FAIR      49  47  91 SW5       30.18S
WARRENTON*     FAIR      50  49  96 CALM      30.18R

$$

VAZ055>057-040600-
NORTH AND CENTRAL PIEDMONT

CITY           SKY/WX    TMP DP  RH WIND       PRES   REMARKS
FREDERICKSBRG* CLEAR     56  51  84 CALM      30.18R
STAFFORD*      CLEAR     50  32  49 CALM      30.22R

$$

NCZ024-NYZ072-PAZ021-071-VAZ022-071-040600-
OTHER REGIONAL OBSERVATIONS

CITY           SKY/WX    TMP DP  RH WIND       PRES   REMARKS
NEW YORK CITY  CLEAR     60  47  61 CALM      30.19R
PHILADELPHIA   CLEAR     62  48  60 SW3       30.17R
PITTSBURGH     PTCLDY    59  43  55 CALM      30.14R
ROANOKE        MOCLDY    55  46  71 CALM      30.23S
RICHMOND       PTCLDY    57  48  72 CALM      30.20R
RALEIGH        PTCLDY    62  48  60 SW9       30.24R

$$

ANZ530>537-040600-
MARINE OBSERVATIONS

STATION/POSITION TIME  TEMP    WIND        PRES
                       AIR SEA DIR/SP/G
                 (UTC) (F)     (DEG/KT/KT) (MB)
THOMAS PT LIGHT  0500   62 60  170/  4/  5 1022.1R
BALT KEY BRIDGE  0400   68     200/  7/  9 1020.5R
COVE POINT       0400   68     230/ 11/ 12 1021.8R
LEWISETTA        0412   64 64              1021.5R
SOLOMONS ISLAND  0412      60                N/A
PINEY POINT      0400          240/  3/  4   N/A

$$




USA.gov is the U.S. government's official web portal to all federal, state and local government web resources and services.